User: anonymous   Login
Location: Unspecified
(40.7945°N, 111.1337°W)
Time: 03:51:49
(UTC-06:00)
Language:

SR - Orbit

View from above orbital plane
View from above orbital plane
View from above satellite
View from above satellite

Ground track
Ground track

The orbit data is extracted from the following two-line orbital elements,

1    46U 60007B   19174.85110207 -.00000083 +00000-0 +66205-5 0  9995
2    46 066.6911 298.1471 0205581 037.5263 323.9991 14.49230817087000
Epoch (UTC): 23 June 2019 20:25:35
Eccentricity: 0.0205581
inclination: 66.6911°
perigee height: 582 km
apogee height: 874 km
right ascension of ascending node: 298.1471°
argument of perigee: 37.5263°
revolutions per day: 14.49230817
mean anomaly at epoch: 323.9991°
orbit number at epoch: 8700

The dashed part of the orbit path shows where the satellite is in the earth's shadow,  

DLR